Tracking 20241 objects as of 26-Jan-2020
HD Live streaming from Space Station
objects crossing your sky now

COSMOS 2251 DEB

Track COSMOS 2251 DEB now!
10-day predictions


NORAD ID: 36461
Int'l Code: 1993-036BBL
Perigee: 441.9 km
Apogee: 490.0 km
Inclination: 73.9 °
Period: 93.8 minutes
Semi major axis: 6836 km
RCS: 0.0027 m2 (small)
Launch date: June 16, 1993
Source: Commonwealth of Independent States (former USSR) (CIS)
Launch site: PLESETSK MISSILE AND SPACE COMPLEX (PKMTR)

Note: This is SATELLITE DEBRIS
aabbcc
Your satellite tracking list
Your tracking list is empty




NASA's NSSDC Master Catalog

Two Line Element Set (TLE):
1 36461U 93036BBL 20025.73166382  .00010224  00000-0  28966-3 0  9999
2 36461  73.9302 194.5658 0035162 204.4521 155.5018 15.35712736556358
Source of the keplerian elements: AFSPC